�������l�o���
Date,Time,MP-1(��Sv/h),MP-2(��Sv/h),MP-3(��Sv/h),MP-4(��Sv/h),MP-5(��Sv/h),MP-6(��Sv/h),MP-7(��Sv/h),MP-8(��Sv/h),����,����(m/s),���J
2023/11/30,00:00,0.529,0.804,0.496,1.005,0.720,0.318,0.570,0.532,��,8.6,��
2023/11/30,00:10,0.528,0.803,0.495,1.008,0.722,0.317,0.571,0.532,��,8.8,��
2023/11/30,00:20,0.527,0.802,0.496,1.006,0.722,0.317,0.572,0.532,��,9.0,��
2023/11/30,00:30,0.528,0.802,0.496,1.007,0.721,0.317,0.571,0.533,��,9.4,��
2023/11/30,00:40,0.527,0.803,0.496,1.008,0.720,0.319,0.572,0.532,��,8.0,��
2023/11/30,00:50,0.528,0.804,0.495,1.007,0.720,0.319,0.572,0.531,��,8.4,��
2023/11/30,01:00,0.527,0.802,0.497,1.008,0.722,0.319,0.572,0.533,��,8.2,��
2023/11/30,01:10,0.529,0.801,0.496,1.006,0.721,0.319,0.571,0.533,��,9.2,��
2023/11/30,01:20,0.529,0.801,0.495,1.007,0.722,0.319,0.573,0.533,��,8.2,��
2023/11/30,01:30,0.527,0.800,0.495,1.007,0.720,0.319,0.571,0.534,���쐼,6.2,��
2023/11/30,01:40,0.528,0.802,0.496,1.007,0.719,0.317,0.573,0.533,��,8.0,��
2023/11/30,01:50,0.528,0.802,0.494,1.007,0.722,0.318,0.572,0.534,��,8.1,��
2023/11/30,02:00,0.529,0.800,0.495,1.008,0.722,0.318,0.570,0.533,��,9.3,��
2023/11/30,02:10,0.529,0.802,0.496,1.007,0.723,0.319,0.573,0.532,��,9.2,��
2023/11/30,02:20,0.530,0.805,0.494,1.006,0.722,0.319,0.572,0.533,��,8.7,��
2023/11/30,02:30,0.528,0.801,0.495,1.005,0.721,0.318,0.572,0.533,��,9.5,��
2023/11/30,02:40,0.529,0.802,0.494,1.007,0.721,0.317,0.571,0.533,��,9.0,��
2023/11/30,02:50,0.529,0.802,0.496,1.004,0.721,0.318,0.572,0.532,��,8.9,��
2023/11/30,03:00,0.529,0.802,0.495,1.005,0.722,0.318,0.572,0.532,��,9.9,��
2023/11/30,03:10,0.530,0.801,0.496,1.007,0.720,0.319,0.572,0.533,��,9.1,��
2023/11/30,03:20,0.528,0.803,0.496,1.007,0.721,0.319,0.573,0.533,��,9.4,��
2023/11/30,03:30,0.529,0.802,0.497,1.008,0.722,0.320,0.572,0.533,��,10.6,��
2023/11/30,03:40,0.529,0.801,0.496,1.007,0.722,0.317,0.573,0.533,��,9.9,��
2023/11/30,03:50,0.529,0.801,0.496,1.007,0.720,0.318,0.573,0.533,��,10.2,��
2023/11/30,04:00,0.529,0.802,0.497,1.009,0.721,0.318,0.572,0.532,��,9.7,��
2023/11/30,04:10,0.529,0.803,0.495,1.006,0.720,0.319,0.573,0.533,��,9.2,��
2023/11/30,04:20,0.527,0.801,0.496,1.009,0.721,0.318,0.572,0.532,��,8.6,��
2023/11/30,04:30,0.529,0.803,0.496,1.008,0.720,0.319,0.573,0.533,��,7.2,��
2023/11/30,04:40,0.530,0.801,0.496,1.007,0.722,0.318,0.572,0.533,���쐼,6.8,��
2023/11/30,04:50,0.528,0.802,0.495,1.007,0.722,0.319,0.572,0.533,��,6.7,��
2023/11/30,05:00,0.529,0.803,0.495,1.006,0.721,0.318,0.572,0.533,��,6.8,��
2023/11/30,05:10,0.528,0.799,0.496,1.009,0.720,0.319,0.572,0.532,��,7.4,��
2023/11/30,05:20,0.529,0.804,0.495,1.007,0.722,0.318,0.571,0.532,��,7.4,��
2023/11/30,05:30,0.529,0.802,0.497,1.008,0.720,0.319,0.571,0.533,���쐼,6.1,��
2023/11/30,05:40,0.528,0.801,0.496,1.008,0.722,0.318,0.571,0.534,���쐼,8.1,��
2023/11/30,05:50,0.528,0.801,0.495,1.008,0.721,0.319,0.573,0.532,��,6.4,��
2023/11/30,06:00,0.528,0.800,0.495,1.005,0.722,0.319,0.571,0.532,��,7.2,��
2023/11/30,06:10,0.527,0.801,0.495,1.011,0.721,0.318,0.572,0.532,��,8.8,��
2023/11/30,06:20,0.529,0.803,0.495,1.006,0.722,0.318,0.571,0.533,���쐼,7.0,��
2023/11/30,06:30,0.531,0.802,0.494,1.006,0.720,0.320,0.572,0.533,���쐼,7.4,��
2023/11/30,06:40,0.527,0.801,0.495,1.010,0.720,0.318,0.571,0.533,��,6.3,��
2023/11/30,06:50,0.528,0.802,0.496,1.006,0.721,0.318,0.571,0.532,��,6.4,��
2023/11/30,07:00,0.529,0.801,0.496,1.010,0.721,0.317,0.571,0.532,��,6.8,��
2023/11/30,07:10,0.530,0.802,0.497,1.007,0.721,0.318,0.572,0.534,���쐼,6.2,��
2023/11/30,07:20,0.530,0.800,0.497,1.007,0.720,0.319,0.573,0.534,���쐼,7.9,�L
2023/11/30,07:30,0.528,0.804,0.497,1.007,0.719,0.320,0.572,0.532,��,9.8,��
2023/11/30,07:40,0.530,0.802,0.496,1.008,0.721,0.318,0.571,0.532,��,9.1,�L
2023/11/30,07:50,0.529,0.803,0.497,1.008,0.722,0.319,0.572,0.533,��,9.3,�L
2023/11/30,08:00,0.527,0.802,0.497,1.008,0.722,0.319,0.572,0.533,��,8.4,��
2023/11/30,08:10,0.528,0.804,0.495,1.006,0.720,0.318,0.572,0.533,��,7.1,��
2023/11/30,08:20,0.527,0.802,0.494,1.010,0.721,0.319,0.574,0.532,��,7.7,��
2023/11/30,08:30,0.529,0.801,0.496,1.009,0.719,0.318,0.572,0.532,��,7.1,��
2023/11/30,08:40,0.528,0.801,0.496,1.007,0.721,0.318,0.573,0.532,���쐼,7.1,��
2023/11/30,08:50,0.529,0.802,0.495,1.007,0.721,0.319,0.573,0.531,���쐼,7.1,��
2023/11/30,09:00,0.529,0.802,0.496,1.008,0.722,0.319,0.573,0.534,��,8.1,��
2023/11/30,09:10,0.528,0.802,0.496,1.008,0.721,0.319,0.573,0.532,��,7.2,��
2023/11/30,09:20,0.529,0.802,0.497,1.008,0.722,0.318,0.573,0.532,���쐼,8.2,��
2023/11/30,09:30,0.529,0.802,0.495,1.006,0.720,0.318,0.572,0.533,���쐼,5.6,��
2023/11/30,09:40,0.529,0.803,0.495,1.007,0.723,0.318,0.572,0.532,��,7.4,��
2023/11/30,09:50,0.529,0.801,0.497,1.008,0.720,0.318,0.571,0.532,�쐼,8.0,��
2023/11/30,10:00,0.528,0.802,0.497,1.009,0.720,0.317,0.572,0.534,���쐼,9.3,��
2023/11/30,10:10,0.529,0.802,0.495,1.008,0.721,0.318,0.571,0.532,��,8.6,��
2023/11/30,10:20,0.522,0.802,0.496,1.008,0.723,0.319,0.571,0.533,��,8.1,��
2023/11/30,10:30,0.524,0.800,0.497,1.008,0.722,0.320,0.570,0.533,��,8.8,��
2023/11/30,10:40,0.522,0.801,0.496,1.009,0.723,0.320,0.571,0.533,��,7.8,��
2023/11/30,10:50,0.524,0.800,0.497,1.008,0.723,0.319,0.571,0.532,���k��,6.1,��
2023/11/30,11:00,0.527,0.800,0.494,1.009,0.723,0.319,0.573,0.534,���k��,7.4,��
2023/11/30,11:10,0.529,0.801,0.497,1.010,0.722,0.317,0.571,0.534,���k��,7.0,�L
2023/11/30,11:20,0.529,0.799,0.496,1.011,0.721,0.315,0.572,0.534,�k��,7.5,�L
2023/11/30,11:30,0.530,0.800,0.497,1.011,0.723,0.315,0.572,0.534,�k��,7.1,�L
2023/11/30,11:40,0.530,0.802,0.498,1.011,0.724,0.320,0.572,0.534,���k��,4.4,��
2023/11/30,11:50,0.530,0.802,0.499,1.011,0.727,0.322,0.572,0.534,�k��,5.1,��
2023/11/30,12:00,0.530,0.801,0.499,1.012,0.724,0.321,0.571,0.534,�k,7.2,��
2023/11/30,12:10,0.532,0.802,0.498,1.010,0.724,0.320,0.571,0.534,�k�k��,8.0,��
2023/11/30,12:20,0.530,0.802,0.496,1.010,0.722,0.322,0.570,0.535,�k�k��,7.9,�L
2023/11/30,12:30,0.529,0.803,0.498,1.008,0.725,0.321,0.568,0.535,�k,7.4,�L
2023/11/30,12:40,0.532,0.802,0.500,1.012,0.725,0.320,0.570,0.532,�k,7.7,�L
2023/11/30,12:50,0.530,0.801,0.498,1.013,0.724,0.320,0.571,0.531,�k,7.5,�L
2023/11/30,13:00,0.531,0.802,0.498,1.009,0.725,0.322,0.572,0.532,�k,6.8,�L
2023/11/30,13:10,0.528,0.803,0.499,1.009,0.725,0.320,0.570,0.533,�k,5.5,��
2023/11/30,13:20,0.531,0.804,0.499,1.009,0.722,0.320,0.573,0.534,�k�k��,6.6,��
2023/11/30,13:30,0.530,0.805,0.498,1.009,0.725,0.319,0.572,0.534,�k�k��,7.7,��
2023/11/30,13:40,0.530,0.803,0.498,1.007,0.723,0.319,0.571,0.533,�k�k��,6.7,��
2023/11/30,13:50,0.530,0.802,0.497,1.009,0.724,0.319,0.572,0.533,�k,6.0,�L
2023/11/30,14:00,0.530,0.804,0.497,1.008,0.724,0.319,0.573,0.534,�k�k��,6.0,��
2023/11/30,14:10,0.530,0.805,0.498,1.009,0.722,0.319,0.572,0.534,�k,6.3,�L
2023/11/30,14:20,0.530,0.805,0.496,1.007,0.724,0.319,0.571,0.533,�k,4.4,��
2023/11/30,14:30,0.530,0.804,0.496,1.007,0.722,0.319,0.572,0.533,�k��,3.9,��
2023/11/30,14:40,0.530,0.803,0.497,1.009,0.724,0.318,0.571,0.532,�k��,6.5,��
2023/11/30,14:50,0.529,0.803,0.497,1.008,0.723,0.318,0.571,0.533,�k��,6.1,��
2023/11/30,15:00,0.530,0.803,0.497,1.007,0.723,0.318,0.571,0.532,�k��,4.4,��
2023/11/30,15:10,0.528,0.803,0.496,1.007,0.722,0.318,0.570,0.533,�k�k��,5.1,��
2023/11/30,15:20,0.530,0.803,0.497,1.008,0.723,0.318,0.570,0.533,�k��,5.0,��
2023/11/30,15:30,0.529,0.805,0.496,1.006,0.723,0.319,0.568,0.533,���k��,5.4,�L
2023/11/30,15:40,0.529,0.805,0.496,1.006,0.724,0.317,0.571,0.533,�k��,6.1,�L
2023/11/30,15:50,0.530,0.805,0.496,1.008,0.724,0.319,0.569,0.532,�k��,4.0,�L
2023/11/30,16:00,0.531,0.805,0.496,1.011,0.723,0.319,0.571,0.534,���k��,6.4,�L
2023/11/30,16:10,0.530,0.805,0.497,1.008,0.724,0.319,0.572,0.531,���k��,6.4,��
2023/11/30,16:20,0.529,0.804,0.498,1.007,0.723,0.319,0.570,0.532,�k��,6.4,��
2023/11/30,16:30,0.530,0.805,0.496,1.009,0.723,0.320,0.571,0.532,���k��,4.4,�L
2023/11/30,16:40,0.531,0.804,0.497,1.008,0.724,0.318,0.572,0.532,���k��,5.0,��
2023/11/30,16:50,0.531,0.803,0.495,1.007,0.722,0.319,0.570,0.532,���k��,5.1,��
2023/11/30,17:00,0.530,0.803,0.496,1.008,0.722,0.319,0.573,0.533,�k��,6.4,�L
2023/11/30,17:10,0.529,0.806,0.496,1.011,0.721,0.319,0.572,0.532,�k��,6.8,�L
2023/11/30,17:20,0.530,0.805,0.495,1.008,0.723,0.319,0.570,0.532,�k��,7.3,�L
2023/11/30,17:30,0.531,0.803,0.498,1.008,0.723,0.319,0.571,0.533,�k��,6.9,�L
2023/11/30,17:40,0.529,0.806,0.496,1.009,0.722,0.318,0.572,0.534,�k��,7.2,�L
2023/11/30,17:50,0.531,0.806,0.498,1.013,0.724,0.320,0.573,0.532,�k��,6.2,�L
2023/11/30,18:00,0.528,0.805,0.498,1.012,0.725,0.321,0.573,0.534,�k��,6.2,��
2023/11/30,18:10,0.530,0.804,0.497,1.009,0.724,0.320,0.573,0.533,�k�k��,6.1,�L
2023/11/30,18:20,0.529,0.804,0.499,1.010,0.722,0.318,0.572,0.531,�k��,7.0,��
2023/11/30,18:30,0.530,0.807,0.498,1.009,0.723,0.319,0.573,0.531,�k��,7.3,��
2023/11/30,18:40,0.530,0.805,0.497,1.010,0.722,0.318,0.571,0.533,�k��,6.3,��
2023/11/30,18:50,0.529,0.804,0.498,1.011,0.722,0.317,0.573,0.533,�k��,6.4,��
2023/11/30,19:00,0.530,0.804,0.498,1.008,0.721,0.319,0.572,0.533,�k��,8.0,��
2023/11/30,19:10,0.529,0.805,0.498,1.010,0.720,0.320,0.571,0.532,�k��,7.0,��
2023/11/30,19:20,0.530,0.805,0.496,1.010,0.722,0.319,0.570,0.532,�k��,6.6,��
2023/11/30,19:30,0.531,0.804,0.496,1.008,0.722,0.319,0.571,0.531,�k��,6.6,�L
2023/11/30,19:40,0.530,0.803,0.497,1.009,0.721,0.318,0.571,0.533,�k��,4.6,�L
2023/11/30,19:50,0.528,0.803,0.497,1.008,0.720,0.317,0.571,0.532,�k��,5.8,��
2023/11/30,20:00,0.529,0.806,0.497,1.007,0.722,0.317,0.572,0.532,�k��,6.2,��
2023/11/30,20:10,0.529,0.804,0.496,1.008,0.722,0.318,0.572,0.533,�k��,5.6,�L
2023/11/30,20:20,0.528,0.804,0.494,1.009,0.722,0.318,0.571,0.531,�k��,4.5,��
2023/11/30,20:30,0.527,0.802,0.496,1.008,0.723,0.318,0.571,0.532,�k��,5.3,�L
2023/11/30,20:40,0.529,0.803,0.495,1.009,0.722,0.318,0.570,0.533,�k��,5.7,��
2023/11/30,20:50,0.529,0.804,0.495,1.009,0.720,0.316,0.570,0.532,�k�k��,5.5,��
2023/11/30,21:00,0.527,0.804,0.496,1.007,0.720,0.318,0.571,0.533,�k��,3.8,��
2023/11/30,21:10,0.529,0.804,0.495,1.008,0.722,0.318,0.570,0.532,�k��,5.4,��
2023/11/30,21:20,0.528,0.803,0.496,1.008,0.722,0.318,0.571,0.532,�k��,6.8,��
2023/11/30,21:30,0.526,0.802,0.496,1.007,0.721,0.317,0.571,0.531,�k��,6.0,��
2023/11/30,21:40,0.527,0.804,0.495,1.006,0.720,0.318,0.571,0.531,�k��,5.7,��
2023/11/30,21:50,0.527,0.803,0.496,1.007,0.721,0.316,0.570,0.532,�k��,5.4,��
2023/11/30,22:00,0.528,0.803,0.496,1.006,0.720,0.317,0.571,0.532,�k��,5.5,��
2023/11/30,22:10,0.527,0.803,0.495,1.006,0.723,0.318,0.570,0.531,�k��,5.2,��
2023/11/30,22:20,0.528,0.803,0.496,1.008,0.720,0.317,0.570,0.532,�k��,5.4,��
2023/11/30,22:30,0.529,0.803,0.494,1.006,0.719,0.317,0.571,0.533,�k�k��,4.5,��
2023/11/30,22:40,0.527,0.803,0.495,1.005,0.719,0.316,0.571,0.532,�k�k��,4.3,��
2023/11/30,22:50,0.527,0.803,0.494,1.006,0.723,0.317,0.573,0.532,�k�k��,4.0,��
2023/11/30,23:00,0.527,0.801,0.493,1.006,0.722,0.318,0.570,0.532,�k�k��,3.7,��
2023/11/30,23:10,0.526,0.802,0.494,1.007,0.722,0.318,0.572,0.531,�k�k��,2.3,��
2023/11/30,23:20,0.527,0.802,0.494,1.006,0.721,0.316,0.571,0.532,�k,1.9,��
2023/11/30,23:30,0.526,0.802,0.495,1.006,0.722,0.317,0.571,0.531,�k,3.3,��
2023/11/30,23:40,0.528,0.803,0.494,1.006,0.722,0.318,0.572,0.531,�k�k��,2.6,��
2023/11/30,23:50,0.525,0.802,0.494,1.006,0.719,0.316,0.570,0.532,�k�k��,1.7,��
